SWA3473 KAUS-KMAF

Flight info

Callsign SWA3473
Flight time 0h 46m
Altitude 26000
Route AEROZ2 SJT DCT DEWEY DCT
Aircraft B38M/M-VGDW/C

Departure

Time 2026-04-28 16:29
Airport Austin Bergstrom International Airport (KAUS)

Arrival

Time 2026-04-28 17:16
Airport Midland International Air and Space Port (KMAF)
Time Latitude Longitude Altitude Speed Heading
2026-04-28 16:12 30.20154 -97.66554 503 ft 0 kts 337°
2026-04-28 16:21 30.20137 -97.66547 504 ft 3 kts 337°
2026-04-28 16:21 30.20120 -97.66538 504 ft 3 kts 337°
2026-04-28 16:21 30.20103 -97.66530 504 ft 3 kts 337°
2026-04-28 16:22 30.20089 -97.66523 504 ft 0 kts 337°
2026-04-28 16:25 30.20091 -97.66525 504 ft 1 kts 332°
2026-04-28 16:25 30.20090 -97.66569 504 ft 12 kts 248°
2026-04-28 16:25 30.20062 -97.66695 504 ft 18 kts 270°
2026-04-28 16:25 30.20082 -97.66854 504 ft 22 kts 284°
2026-04-28 16:26 30.20091 -97.67035 504 ft 23 kts 271°
2026-04-28 16:26 30.20090 -97.67214 504 ft 23 kts 268°
2026-04-28 16:26 30.20127 -97.67339 504 ft 16 kts 349°
2026-04-28 16:26 30.20254 -97.67344 503 ft 21 kts 359°
2026-04-28 16:27 30.20413 -97.67347 504 ft 25 kts 359°
2026-04-28 16:27 30.20600 -97.67351 503 ft 28 kts 359°
2026-04-28 16:27 30.20977 -97.67449 516 ft 28 kts 346°
2026-04-28 16:28 30.21169 -97.67508 514 ft 29 kts 345°
2026-04-28 16:28 30.21291 -97.67545 512 ft 26 kts 344°
2026-04-28 16:28 30.21350 -97.67778 504 ft 25 kts 269°
2026-04-28 16:28 30.21281 -97.67932 503 ft 23 kts 183°
2026-04-28 16:29 30.20559 -97.67915 509 ft 116 kts 179°
2026-04-28 16:29 30.18259 -97.67853 1261 ft 189 kts 180°
2026-04-28 16:30 30.16956 -97.68242 1973 ft 201 kts 212°
2026-04-28 16:30 30.15849 -97.69286 2633 ft 212 kts 223°
2026-04-28 16:30 30.14720 -97.70501 3197 ft 230 kts 223°
2026-04-28 16:30 30.13938 -97.71347 3623 ft 235 kts 223°
2026-04-28 16:31 30.12750 -97.72695 4262 ft 242 kts 232°
2026-04-28 16:31 30.12077 -97.74462 4889 ft 244 kts 262°
2026-04-28 16:31 30.12063 -97.76451 5549 ft 253 kts 272°
2026-04-28 16:31 30.12192 -97.78513 6192 ft 261 kts 278°
2026-04-28 16:32 30.12759 -97.80512 6832 ft 265 kts 296°
2026-04-28 16:32 30.15023 -97.84049 8132 ft 281 kts 307°
2026-04-28 16:32 30.16228 -97.85845 8782 ft 285 kts 307°
2026-04-28 16:33 30.17457 -97.87666 9431 ft 288 kts 307°
2026-04-28 16:33 30.18293 -97.88901 9865 ft 290 kts 307°
2026-04-28 16:33 30.19947 -97.91345 10729 ft 293 kts 307°
2026-04-28 16:33 30.21217 -97.93219 11379 ft 301 kts 307°
2026-04-28 16:34 30.22542 -97.95178 12011 ft 318 kts 307°
2026-04-28 16:34 30.23938 -97.97245 12631 ft 334 kts 307°
2026-04-28 16:34 30.25389 -97.99391 13264 ft 344 kts 307°
2026-04-28 16:34 30.26879 -98.01595 13910 ft 350 kts 307°
2026-04-28 16:35 30.28384 -98.03821 14559 ft 353 kts 307°
2026-04-28 16:35 30.29907 -98.06073 15210 ft 357 kts 307°
2026-04-28 16:35 30.31441 -98.08343 15858 ft 360 kts 307°
2026-04-28 16:35 30.32993 -98.10640 16505 ft 364 kts 307°
2026-04-28 16:36 30.34563 -98.12966 16884 ft 368 kts 307°
2026-04-28 16:36 30.36140 -98.15304 16968 ft 368 kts 307°
2026-04-28 16:36 30.37713 -98.17636 17003 ft 368 kts 307°
2026-04-28 16:36 30.39323 -98.20026 17020 ft 375 kts 307°
2026-04-28 16:37 30.40932 -98.22415 17691 ft 376 kts 307°
2026-04-28 16:37 30.42549 -98.24816 18389 ft 380 kts 307°
2026-04-28 16:37 30.44182 -98.27244 19061 ft 384 kts 307°
2026-04-28 16:38 30.47031 -98.32525 20358 ft 391 kts 296°
2026-04-28 16:38 30.48251 -98.35358 20965 ft 395 kts 296°
2026-04-28 16:38 30.49493 -98.38218 21572 ft 399 kts 296°
2026-04-28 16:38 30.50751 -98.41105 22160 ft 403 kts 296°
2026-04-28 16:39 30.52020 -98.44016 22731 ft 406 kts 296°
2026-04-28 16:39 30.53300 -98.46956 23287 ft 410 kts 296°
2026-04-28 16:39 30.54590 -98.49918 23832 ft 413 kts 296°
2026-04-28 16:39 30.55890 -98.52907 24354 ft 417 kts 296°
2026-04-28 16:40 30.57199 -98.55917 24869 ft 420 kts 296°
2026-04-28 16:40 30.58518 -98.58955 25353 ft 423 kts 296°
2026-04-28 16:40 30.59850 -98.62024 25816 ft 427 kts 296°
2026-04-28 16:40 30.61192 -98.65118 25981 ft 430 kts 296°
2026-04-28 16:41 30.62535 -98.68219 26007 ft 429 kts 296°
2026-04-28 16:41 30.63875 -98.71315 26000 ft 429 kts 296°
2026-04-28 16:41 30.65211 -98.74404 26000 ft 428 kts 296°
2026-04-28 16:41 30.66558 -98.77519 26000 ft 437 kts 296°
2026-04-28 16:42 30.67946 -98.80733 25997 ft 450 kts 296°
2026-04-28 16:42 30.69362 -98.84016 25997 ft 457 kts 296°
2026-04-28 16:42 30.70790 -98.87327 25997 ft 460 kts 296°
2026-04-28 16:42 30.72206 -98.90616 26000 ft 460 kts 296°
2026-04-28 16:43 30.73656 -98.93988 26000 ft 460 kts 296°
2026-04-28 16:43 30.75067 -98.97268 26000 ft 460 kts 296°
2026-04-28 16:43 30.76494 -99.00592 26000 ft 460 kts 296°
2026-04-28 16:43 30.77925 -99.03926 26000 ft 460 kts 296°
2026-04-28 16:44 30.79371 -99.07299 26000 ft 460 kts 296°
2026-04-28 16:44 30.80798 -99.10630 26000 ft 460 kts 296°
2026-04-28 16:44 30.82222 -99.13957 26000 ft 460 kts 296°
2026-04-28 16:44 30.83645 -99.17286 26000 ft 460 kts 296°
2026-04-28 16:45 30.85071 -99.20623 26000 ft 460 kts 296°
2026-04-28 16:45 30.86495 -99.23960 26000 ft 460 kts 296°
2026-04-28 16:45 30.87916 -99.27291 26000 ft 460 kts 296°
2026-04-28 16:45 30.89340 -99.30635 26000 ft 460 kts 296°
2026-04-28 16:46 30.90745 -99.33935 26000 ft 460 kts 296°
2026-04-28 16:46 30.92163 -99.37270 26000 ft 460 kts 296°
2026-04-28 16:46 30.93583 -99.40613 26000 ft 460 kts 296°
2026-04-28 16:46 30.95000 -99.43949 26000 ft 460 kts 296°
2026-04-28 16:47 30.96417 -99.47291 26000 ft 460 kts 296°
2026-04-28 16:47 30.97835 -99.50637 26000 ft 460 kts 296°
2026-04-28 16:47 30.99271 -99.54028 26000 ft 460 kts 296°
2026-04-28 16:47 31.00666 -99.57327 26000 ft 460 kts 296°
2026-04-28 16:48 31.02079 -99.60671 26000 ft 460 kts 296°
2026-04-28 16:48 31.03511 -99.64061 26000 ft 460 kts 296°
2026-04-28 16:48 31.04921 -99.67405 26000 ft 460 kts 296°
2026-04-28 16:48 31.06332 -99.70753 26000 ft 460 kts 296°
2026-04-28 16:49 31.07744 -99.74106 26000 ft 460 kts 296°
2026-04-28 16:49 31.09155 -99.77460 26000 ft 460 kts 296°
2026-04-28 16:49 31.10564 -99.80811 26000 ft 460 kts 296°
2026-04-28 16:49 31.11973 -99.84167 26000 ft 460 kts 296°
2026-04-28 16:50 31.13378 -99.87516 26000 ft 460 kts 296°
2026-04-28 16:50 31.14784 -99.90871 26000 ft 460 kts 296°
2026-04-28 16:50 31.16189 -99.94226 26000 ft 460 kts 296°
2026-04-28 16:50 31.17595 -99.97585 26000 ft 460 kts 296°
2026-04-28 16:51 31.18996 -100.00938 26000 ft 460 kts 296°
2026-04-28 16:51 31.20400 -100.04300 26000 ft 460 kts 295°
2026-04-28 16:51 31.21801 -100.07659 26000 ft 460 kts 295°
2026-04-28 16:51 31.23205 -100.11025 26000 ft 460 kts 295°
2026-04-28 16:52 31.24602 -100.14381 26000 ft 460 kts 295°
2026-04-28 16:52 31.26002 -100.17746 26000 ft 460 kts 295°
2026-04-28 16:52 31.27403 -100.21115 26000 ft 460 kts 295°
2026-04-28 16:52 31.28783 -100.24437 26000 ft 460 kts 295°
2026-04-28 16:53 31.30178 -100.27801 26000 ft 460 kts 295°
2026-04-28 16:53 31.31574 -100.31167 26000 ft 460 kts 295°
2026-04-28 16:53 31.32969 -100.34534 26000 ft 460 kts 295°
2026-04-28 16:53 31.34383 -100.37950 26000 ft 460 kts 295°
2026-04-28 16:54 31.35775 -100.41315 26000 ft 460 kts 295°
2026-04-28 16:54 31.37167 -100.44690 26000 ft 460 kts 294°
2026-04-28 16:54 31.38471 -100.48102 26003 ft 460 kts 293°
2026-04-28 16:54 31.39323 -100.50377 26001 ft 460 kts 293°
2026-04-28 16:55 31.41039 -100.54961 26000 ft 460 kts 293°
2026-04-28 16:55 31.42319 -100.58386 26000 ft 460 kts 293°
2026-04-28 16:55 31.43600 -100.61820 26000 ft 460 kts 293°
2026-04-28 16:55 31.44878 -100.65247 26000 ft 460 kts 293°
2026-04-28 16:56 31.46158 -100.68683 26000 ft 460 kts 293°
2026-04-28 16:56 31.47436 -100.72116 26000 ft 460 kts 293°
2026-04-28 16:56 31.48711 -100.75548 26000 ft 460 kts 293°
2026-04-28 16:56 31.49989 -100.78987 26000 ft 460 kts 293°
2026-04-28 16:57 31.51264 -100.82424 26000 ft 460 kts 293°
2026-04-28 16:57 31.52539 -100.85865 26000 ft 460 kts 293°
2026-04-28 16:57 31.53811 -100.89299 26000 ft 460 kts 293°
2026-04-28 16:57 31.55084 -100.92742 26000 ft 460 kts 293°
2026-04-28 16:58 31.56356 -100.96182 25792 ft 458 kts 293°
2026-04-28 16:58 31.57609 -100.99577 25292 ft 450 kts 293°
2026-04-28 16:58 31.58842 -101.02919 24793 ft 442 kts 293°
2026-04-28 16:58 31.60047 -101.06191 24292 ft 429 kts 293°
2026-04-28 16:59 31.61204 -101.09335 23828 ft 411 kts 293°
2026-04-28 16:59 31.62316 -101.12353 23352 ft 396 kts 293°
2026-04-28 16:59 31.63389 -101.15275 22864 ft 383 kts 293°
2026-04-28 16:59 31.64433 -101.18119 22449 ft 378 kts 293°
2026-04-28 17:00 31.65472 -101.20951 22022 ft 376 kts 293°
2026-04-28 17:00 31.66502 -101.23763 21600 ft 374 kts 292°
2026-04-28 17:00 31.67524 -101.26554 21168 ft 371 kts 292°
2026-04-28 17:00 31.68542 -101.29335 20755 ft 369 kts 292°
2026-04-28 17:01 31.69553 -101.32100 20331 ft 368 kts 292°
2026-04-28 17:01 31.70557 -101.34847 19907 ft 366 kts 292°
2026-04-28 17:01 31.71557 -101.37588 19483 ft 364 kts 292°
2026-04-28 17:01 31.72550 -101.40309 19053 ft 362 kts 292°
2026-04-28 17:02 31.73539 -101.43021 18637 ft 360 kts 292°
2026-04-28 17:02 31.74203 -101.44844 18352 ft 359 kts 292°
2026-04-28 17:02 31.75501 -101.48408 17796 ft 357 kts 292°
2026-04-28 17:02 31.76347 -101.51133 17369 ft 354 kts 286°
2026-04-28 17:03 31.77784 -101.56654 16520 ft 351 kts 287°
2026-04-28 17:03 31.78500 -101.59389 16102 ft 350 kts 287°
2026-04-28 17:03 31.79214 -101.62119 15680 ft 348 kts 287°
2026-04-28 17:04 31.80630 -101.67535 14827 ft 345 kts 287°
2026-04-28 17:04 31.81332 -101.70227 14404 ft 344 kts 287°
2026-04-28 17:05 31.82504 -101.74720 13697 ft 341 kts 287°
2026-04-28 17:05 31.83196 -101.77379 13276 ft 340 kts 287°
2026-04-28 17:05 31.83886 -101.80033 12855 ft 338 kts 287°
2026-04-28 17:06 31.85257 -101.85308 12011 ft 336 kts 287°
2026-04-28 17:06 31.85936 -101.87925 11589 ft 334 kts 287°
2026-04-28 17:06 31.87274 -101.93090 11069 ft 321 kts 286°
2026-04-28 17:07 31.87907 -101.95540 11058 ft 302 kts 286°
2026-04-28 17:07 31.88499 -101.97829 10870 ft 287 kts 286°
2026-04-28 17:07 31.89073 -102.00052 10435 ft 281 kts 286°
2026-04-28 17:07 31.89636 -102.02237 9981 ft 277 kts 286°
2026-04-28 17:08 31.90232 -102.04387 9534 ft 277 kts 294°
2026-04-28 17:08 31.91393 -102.06199 9064 ft 282 kts 321°
2026-04-28 17:08 31.93142 -102.07258 8611 ft 287 kts 343°
2026-04-28 17:08 31.95096 -102.07777 8160 ft 290 kts 348°
2026-04-28 17:09 31.97099 -102.08171 7712 ft 294 kts 351°
2026-04-28 17:09 31.99137 -102.08512 7249 ft 297 kts 351°
2026-04-28 17:09 32.01195 -102.08854 6779 ft 300 kts 352°
2026-04-28 17:09 32.03273 -102.09198 6327 ft 303 kts 351°
2026-04-28 17:10 32.05372 -102.09546 5875 ft 306 kts 351°
2026-04-28 17:10 32.07487 -102.09898 5405 ft 307 kts 352°
2026-04-28 17:10 32.09570 -102.10363 5139 ft 300 kts 339°
2026-04-28 17:10 32.11293 -102.11619 5084 ft 286 kts 314°
2026-04-28 17:11 32.12319 -102.13529 5068 ft 270 kts 287°
2026-04-28 17:11 32.12530 -102.15657 5050 ft 256 kts 267°
2026-04-28 17:11 32.12423 -102.17731 5088 ft 253 kts 265°
2026-04-28 17:11 32.12215 -102.19792 5027 ft 250 kts 252°
2026-04-28 17:12 32.11256 -102.21386 4981 ft 234 kts 214°
2026-04-28 17:12 32.09789 -102.21877 5019 ft 214 kts 179°
2026-04-28 17:12 32.08320 -102.21719 5012 ft 211 kts 174°
2026-04-28 17:12 32.06862 -102.21539 5007 ft 210 kts 174°
2026-04-28 17:13 32.05406 -102.21357 4973 ft 212 kts 175°
2026-04-28 17:13 32.03940 -102.21219 4705 ft 208 kts 177°
2026-04-28 17:13 32.02522 -102.21154 4334 ft 197 kts 178°
2026-04-28 17:13 32.01210 -102.21078 4021 ft 180 kts 177°
2026-04-28 17:14 32.00004 -102.20974 3732 ft 168 kts 176°
2026-04-28 17:14 31.98854 -102.20851 3483 ft 164 kts 175°
2026-04-28 17:14 31.97723 -102.20744 3262 ft 162 kts 176°
2026-04-28 17:14 31.96606 -102.20633 3054 ft 161 kts 175°
2026-04-28 17:15 31.95504 -102.20507 2884 ft 153 kts 175°
2026-04-28 17:15 31.94552 -102.20414 2873 ft 110 kts 175°
2026-04-28 17:15 31.94064 -102.20364 2873 ft 52 kts 175°
2026-04-28 17:15 31.93696 -102.20326 2870 ft 54 kts 175°
2026-04-28 17:16 31.93413 -102.20296 2869 ft 18 kts 175°
2026-04-28 17:16 31.93347 -102.20385 2869 ft 15 kts 265°
2026-04-28 17:16 31.93390 -102.20474 2871 ft 13 kts 347°
2026-04-28 17:16 31.93487 -102.20484 2871 ft 15 kts 354°
2026-04-28 17:17 31.93597 -102.20497 2872 ft 17 kts 353°
2026-04-28 17:17 31.93706 -102.20518 2873 ft 16 kts 350°
2026-04-28 17:17 31.93776 -102.20587 2873 ft 11 kts 288°
2026-04-28 17:17 31.93778 -102.20668 2872 ft 8 kts 269°
2026-04-28 17:18 31.93777 -102.20682 2872 ft 0 kts 267°